Time,TemperatureF,DewpointF,PressureIn,WindDirection,WindDirectionDegrees,WindSpeedMPH,WindSpeedGustMPH,Humidity,HourlyPrecipIn,Conditions,Clouds,dailyrainin,SoftwareType,DateUTC
2013-01-02 00:16:00,60.1,55.6,29.90,South,180,0.0,-999.0,85,-99.99,,,0.00,Acu-Link.com,2013-01-02 05:16:00,
2013-01-02 00:31:00,60.1,55.6,29.90,South,180,0.0,-999.0,85,-99.99,,,0.00,Acu-Link.com,2013-01-02 05:31:00,
2013-01-02 00:46:00,59.5,55.0,29.89,South,180,0.0,-999.0,85,-99.99,,,0.00,Acu-Link.com,2013-01-02 05:46:00,
2013-01-02 01:02:00,59.4,54.9,29.90,South,180,0.0,-999.0,85,-99.99,,,0.00,Acu-Link.com,2013-01-02 06:02:00,
2013-01-02 01:17:00,59.4,54.9,29.89,South,180,0.0,-999.0,85,-99.99,,,0.00,Acu-Link.com,2013-01-02 06:17:00,
2013-01-02 01:32:00,59.2,54.7,29.90,West,270,0.0,-999.0,85,-99.99,,,0.00,Acu-Link.com,2013-01-02 06:32:00,
2013-01-02 01:48:00,58.8,54.6,29.90,SSW,202,0.0,-999.0,86,-99.99,,,0.00,Acu-Link.com,2013-01-02 06:48:00,
2013-01-02 02:03:00,58.3,54.1,29.89,SSW,202,0.0,-999.0,86,-99.99,,,0.00,Acu-Link.com,2013-01-02 07:03:00,
2013-01-02 02:18:00,58.3,54.4,29.89,SSW,202,0.0,-999.0,87,-99.99,,,0.00,Acu-Link.com,2013-01-02 07:18:00,
2013-01-02 02:34:00,58.3,54.4,29.90,SW,225,0.0,-999.0,87,-99.99,,,0.00,Acu-Link.com,2013-01-02 07:34:00,
2013-01-02 02:49:00,57.7,53.9,29.90,SSW,202,0.0,-999.0,87,-99.99,,,0.00,Acu-Link.com,2013-01-02 07:49:00,
2013-01-02 03:04:00,57.6,53.8,29.90,SSW,202,0.0,-999.0,87,-99.99,,,0.00,Acu-Link.com,2013-01-02 08:04:00,
2013-01-02 03:19:00,57.2,53.4,29.90,SSW,202,0.0,-999.0,87,-99.99,,,0.00,Acu-Link.com,2013-01-02 08:19:00,
2013-01-02 03:35:00,57.2,53.7,29.90,SSW,202,0.0,-999.0,88,-99.99,,,0.00,Acu-Link.com,2013-01-02 08:35:00,
2013-01-02 03:50:00,57.2,53.7,29.90,SSW,202,0.0,-999.0,88,-99.99,,,0.00,Acu-Link.com,2013-01-02 08:50:00,
2013-01-02 04:07:00,57.4,53.9,29.90,SSW,202,0.0,-999.0,88,-99.99,,,0.00,Acu-Link.com,2013-01-02 09:07:00,
2013-01-02 04:22:00,57.4,53.9,29.89,SSW,202,0.0,-999.0,88,-99.99,,,0.00,Acu-Link.com,2013-01-02 09:22:00,
2013-01-02 04:37:00,57.2,53.7,29.90,SSW,202,0.0,-999.0,88,-99.99,,,0.00,Acu-Link.com,2013-01-02 09:37:00,
2013-01-02 04:52:00,57.4,53.9,29.90,SSW,202,0.0,-999.0,88,-99.99,,,0.00,Acu-Link.com,2013-01-02 09:52:00,
2013-01-02 05:08:00,57.0,53.5,29.90,SSW,202,0.0,-999.0,88,-99.99,,,0.00,Acu-Link.com,2013-01-02 10:08:00,
2013-01-02 05:23:00,57.0,53.8,29.90,SSW,202,0.0,-999.0,89,-99.99,,,0.00,Acu-Link.com,2013-01-02 10:23:00,
2013-01-02 05:38:00,57.0,53.8,29.89,SSW,202,0.0,-999.0,89,-99.99,,,0.00,Acu-Link.com,2013-01-02 10:38:00,
2013-01-02 05:54:00,56.8,53.6,29.90,SSW,202,0.0,-999.0,89,-99.99,,,0.00,Acu-Link.com,2013-01-02 10:54:00,
2013-01-02 06:09:00,56.8,53.6,29.90,SSW,202,0.0,-999.0,89,-99.99,,,0.00,Acu-Link.com,2013-01-02 11:09:00,
2013-01-02 06:25:00,57.4,54.2,29.90,SSW,202,0.0,-999.0,89,-99.99,,,0.00,Acu-Link.com,2013-01-02 11:25:00,
2013-01-02 06:40:00,57.7,54.5,29.91,SSW,202,0.0,-999.0,89,-99.99,,,0.00,Acu-Link.com,2013-01-02 11:40:00,
2013-01-02 06:55:00,57.9,54.7,29.91,SSW,202,0.0,-999.0,89,-99.99,,,0.00,Acu-Link.com,2013-01-02 11:55:00,
2013-01-02 07:10:00,57.4,54.2,29.91,SSW,202,0.0,-999.0,89,-99.99,,,0.00,Acu-Link.com,2013-01-02 12:10:00,
2013-01-02 07:26:00,57.6,54.4,29.91,NNW,337,0.0,-999.0,89,-99.99,,,0.00,Acu-Link.com,2013-01-02 12:26:00,
2013-01-02 07:41:00,58.1,54.9,29.92,WNW,292,0.0,-999.0,89,-99.99,,,0.00,Acu-Link.com,2013-01-02 12:41:00,
2013-01-02 07:56:00,59.7,56.8,29.92,SSE,157,1.7,-999.0,90,-99.99,,,0.00,Acu-Link.com,2013-01-02 12:56:00,
2013-01-02 08:12:00,61.3,58.3,29.93,SW,225,1.7,-999.0,90,-99.99,,,0.00,Acu-Link.com,2013-01-02 13:12:00,
2013-01-02 08:27:00,64.4,61.4,29.93,SW,225,1.7,-999.0,90,-99.99,,,0.00,Acu-Link.com,2013-01-02 13:27:00,
2013-01-02 08:42:00,67.1,61.8,29.93,SSW,202,2.2,-999.0,83,-99.99,,,0.00,Acu-Link.com,2013-01-02 13:42:00,
2013-01-02 08:58:00,66.6,59.9,29.93,SW,225,3.2,-999.0,79,-99.99,,,0.00,Acu-Link.com,2013-01-02 13:58:00,
2013-01-02 09:13:00,66.6,59.9,29.94,SSW,202,2.7,-999.0,79,-99.99,,,0.00,Acu-Link.com,2013-01-02 14:13:00,
2013-01-02 09:28:00,68.0,61.6,29.94,WNW,292,1.7,-999.0,80,-99.99,,,0.00,Acu-Link.com,2013-01-02 14:28:00,
2013-01-02 09:43:00,69.4,61.9,29.94,SSW,202,3.7,-999.0,77,-99.99,,,0.00,Acu-Link.com,2013-01-02 14:43:00,
2013-01-02 09:59:00,70.3,62.7,29.94,SSW,202,2.7,-999.0,77,-99.99,,,0.00,Acu-Link.com,2013-01-02 14:59:00,
2013-01-02 10:14:00,71.4,63.1,29.93,SSW,202,2.7,-999.0,75,-99.99,,,0.00,Acu-Link.com,2013-01-02 15:14:00,
2013-01-02 10:30:00,73.2,64.4,29.93,SSW,202,3.7,-999.0,74,-99.99,,,0.00,Acu-Link.com,2013-01-02 15:30:00,
2013-01-02 10:45:00,73.6,64.4,29.92,SSW,202,2.2,-999.0,73,-99.99,,,0.00,Acu-Link.com,2013-01-02 15:45:00,
2013-01-02 11:00:00,73.4,64.6,29.92,East,90,3.2,-999.0,74,-99.99,,,0.00,Acu-Link.com,2013-01-02 16:00:00,
2013-01-02 11:16:00,74.8,64.8,29.92,SW,225,4.2,-999.0,71,-99.99,,,0.00,Acu-Link.com,2013-01-02 16:16:00,
2013-01-02 11:31:00,77.0,65.6,29.91,South,180,3.2,-999.0,68,-99.99,,,0.00,Acu-Link.com,2013-01-02 16:31:00,
2013-01-02 11:46:00,77.5,64.8,29.91,South,180,2.7,-999.0,65,-99.99,,,0.00,Acu-Link.com,2013-01-02 16:46:00,
2013-01-02 12:01:00,77.2,64.1,29.90,West,270,3.7,-999.0,64,-99.99,,,0.00,Acu-Link.com,2013-01-02 17:01:00,
2013-01-02 12:17:00,78.6,64.5,29.89,South,180,2.7,-999.0,62,-99.99,,,0.00,Acu-Link.com,2013-01-02 17:17:00,
2013-01-02 12:32:00,78.3,63.7,29.88,SSE,157,4.2,-999.0,61,-99.99,,,0.00,Acu-Link.com,2013-01-02 17:32:00,
2013-01-02 12:47:00,77.5,63.4,29.87,SSW,202,3.2,-999.0,62,-99.99,,,0.00,Acu-Link.com,2013-01-02 17:47:00,
2013-01-02 13:03:00,78.6,64.0,29.86,WSW,247,2.7,-999.0,61,-99.99,,,0.00,Acu-Link.com,2013-01-02 18:03:00,
2013-01-02 13:18:00,77.5,63.4,29.86,NNW,337,1.7,-999.0,62,-99.99,,,0.00,Acu-Link.com,2013-01-02 18:18:00,
2013-01-02 13:33:00,79.3,64.2,29.85,SSW,202,4.2,-999.0,60,-99.99,,,0.00,Acu-Link.com,2013-01-02 18:33:00,
2013-01-02 13:49:00,79.2,63.1,29.84,WSW,247,2.7,-999.0,58,-99.99,,,0.00,Acu-Link.com,2013-01-02 18:49:00,
2013-01-02 14:04:00,78.1,63.1,29.85,SW,225,1.7,-999.0,60,-99.99,,,0.00,Acu-Link.com,2013-01-02 19:04:00,
2013-01-02 14:19:00,79.0,63.9,29.84,East,90,3.7,-999.0,60,-99.99,,,0.00,Acu-Link.com,2013-01-02 19:19:00,
2013-01-02 14:35:00,80.2,64.1,29.84,West,270,2.7,-999.0,58,-99.99,,,0.00,Acu-Link.com,2013-01-02 19:35:00,
2013-01-02 14:50:00,80.8,63.6,29.83,SSW,202,2.7,-999.0,56,-99.99,,,0.00,Acu-Link.com,2013-01-02 19:50:00,
2013-01-02 15:05:00,80.6,62.9,29.84,NE,45,13.0,-999.0,55,-99.99,,,0.00,Acu-Link.com,2013-01-02 20:05:00,
2013-01-02 15:21:00,80.4,63.2,29.83,NNW,337,2.2,-999.0,56,-99.99,,,0.00,Acu-Link.com,2013-01-02 20:21:00,
2013-01-02 15:36:00,79.7,63.1,29.83,NNE,22,4.2,-999.0,57,-99.99,,,0.00,Acu-Link.com,2013-01-02 20:36:00,
2013-01-02 15:51:00,78.8,62.8,29.84,WNW,292,3.7,-999.0,58,-99.99,,,0.00,Acu-Link.com,2013-01-02 20:51:00,
2013-01-02 16:06:00,78.3,62.8,29.84,WNW,292,2.2,-999.0,59,-99.99,,,0.00,Acu-Link.com,2013-01-02 21:06:00,
2013-01-02 16:22:00,78.6,63.1,29.85,SSW,202,1.1,-999.0,59,-99.99,,,0.00,Acu-Link.com,2013-01-02 21:22:00,
2013-01-02 16:37:00,78.4,62.9,29.85,WSW,247,0.0,-999.0,59,-99.99,,,0.00,Acu-Link.com,2013-01-02 21:37:00,
2013-01-02 16:52:00,77.9,62.4,29.86,SSW,202,1.7,-999.0,59,-99.99,,,0.00,Acu-Link.com,2013-01-02 21:52:00,
2013-01-02 17:07:00,77.2,62.2,29.86,WSW,247,1.7,-999.0,60,-99.99,,,0.00,Acu-Link.com,2013-01-02 22:07:00,
2013-01-02 17:23:00,76.1,61.7,29.86,South,180,0.0,-999.0,61,-99.99,,,0.00,Acu-Link.com,2013-01-02 22:23:00,
2013-01-02 17:38:00,75.4,61.5,29.86,SW,225,0.0,-999.0,62,-99.99,,,0.00,Acu-Link.com,2013-01-02 22:38:00,
2013-01-02 17:53:00,74.7,61.3,29.87,West,270,0.0,-999.0,63,-99.99,,,0.00,Acu-Link.com,2013-01-02 22:53:00,
2013-01-02 18:09:00,74.1,61.1,29.86,SSW,202,0.0,-999.0,64,-99.99,,,0.00,Acu-Link.com,2013-01-02 23:09:00,
2013-01-02 18:24:00,73.6,61.1,29.87,SSW,202,1.7,-999.0,65,-99.99,,,0.00,Acu-Link.com,2013-01-02 23:24:00,
2013-01-02 18:39:00,73.2,61.1,29.87,West,270,2.2,-999.0,66,-99.99,,,0.00,Acu-Link.com,2013-01-02 23:39:00,
2013-01-02 18:55:00,72.7,61.1,29.88,NW,315,1.7,-999.0,67,-99.99,,,0.00,Acu-Link.com,2013-01-02 23:55:00,
2013-01-02 19:10:00,72.3,61.1,29.88,SSW,202,1.7,-999.0,68,-99.99,,,0.00,Acu-Link.com,2013-01-03 00:10:00,
2013-01-02 19:25:00,71.6,60.9,29.89,SSW,202,0.0,-999.0,69,-99.99,,,0.00,Acu-Link.com,2013-01-03 00:25:00,
2013-01-02 19:40:00,71.6,61.3,29.89,SSW,202,1.7,-999.0,70,-99.99,,,0.00,Acu-Link.com,2013-01-03 00:40:00,
2013-01-02 19:56:00,71.1,61.2,29.89,SSW,202,0.0,-999.0,71,-99.99,,,0.00,Acu-Link.com,2013-01-03 00:56:00,
2013-01-02 20:11:00,70.7,61.2,29.90,SW,225,0.0,-999.0,72,-99.99,,,0.00,Acu-Link.com,2013-01-03 01:11:00,
2013-01-02 20:26:00,70.5,61.4,29.90,WSW,247,1.7,-999.0,73,-99.99,,,0.00,Acu-Link.com,2013-01-03 01:26:00,
2013-01-02 20:42:00,70.0,61.7,29.90,West,270,0.0,-999.0,75,-99.99,,,0.00,Acu-Link.com,2013-01-03 01:42:00,
2013-01-02 20:57:00,69.8,61.9,29.91,SW,225,0.0,-999.0,76,-99.99,,,0.00,Acu-Link.com,2013-01-03 01:57:00,
2013-01-02 21:13:00,69.3,61.8,29.91,West,270,1.7,-999.0,77,-99.99,,,0.00,Acu-Link.com,2013-01-03 02:13:00,
2013-01-02 21:28:00,69.1,61.9,29.91,South,180,1.7,-999.0,78,-99.99,,,0.00,Acu-Link.com,2013-01-03 02:28:00,
2013-01-02 21:43:00,68.4,61.6,29.92,West,270,0.0,-999.0,79,-99.99,,,0.00,Acu-Link.com,2013-01-03 02:43:00,
2013-01-02 21:58:00,67.6,61.2,29.92,West,270,2.2,-999.0,80,-99.99,,,0.00,Acu-Link.com,2013-01-03 02:58:00,
2013-01-02 22:14:00,67.1,61.1,29.92,West,270,1.7,-999.0,81,-99.99,,,0.00,Acu-Link.com,2013-01-03 03:14:00,
2013-01-02 22:45:00,66.2,60.9,29.93,NNE,22,1.1,-999.0,83,-99.99,,,0.00,Acu-Link.com,2013-01-03 03:45:00,
2013-01-02 23:00:00,65.8,60.8,29.92,SW,225,0.0,-999.0,84,-99.99,,,0.00,Acu-Link.com,2013-01-03 04:00:00,
2013-01-02 23:15:00,65.1,60.1,29.92,NNW,337,0.0,-999.0,84,-99.99,,,0.00,Acu-Link.com,2013-01-03 04:15:00,
2013-01-02 23:31:00,65.3,60.3,29.93,West,270,0.0,-999.0,84,-99.99,,,0.00,Acu-Link.com,2013-01-03 04:31:00,
2013-01-02 23:46:00,65.5,60.9,29.92,North,0,1.1,-999.0,85,-99.99,,,0.00,Acu-Link.com,2013-01-03 04:46:00,